Home > Time Zones > World Clock > Weather > U.S.A. > Yuma > Past weeks

Flag for U.S.A. Weather past 2 weeks in Yuma, Arizona, U.S.A.

Now
69 °F

Clear.


Feels Like: 69 °F
Forecast: 64 / 85 °F
Wind: 3 mph from Northwest

Location: Yuma Marine Corps Air Station

Current Time: May 24, 2015 at 12:49:06 AM

Latest Report: May 23, 2015 at 11:57 PM


Visibility: N/A

Pressure: 29.90 "Hg

Humidity: 47%

Dew point: 48 °F

Location of YumaLocation

Historic Weather in Yuma — Graph

°F

Yuma temperature yesterday

Maximum temperature yesterday: 85 °F (at 4:57 PM)
Minimum temperature yesterday: 60 °F (at 4:57 AM)
Average temperature yesterday: 73 °F

Past Weeks' High & Low Weather Summary

 TemperatureHumidityPressure
High96 °F (May 11, 4:57 PM)96% (May 16, 5:57 AM)30.00 "Hg (May 16, 5:57 AM)
Low51 °F (May 16, 5:57 AM)10% (May 11, 4:57 PM)29.67 "Hg (May 11, 5:57 PM)
Average74 °F37%29.85 "Hg
* Reported May 8 11:57 PM — May 23 11:57 PM, Yuma, Weather by CustomWeather, © 2015

Note: Actual official high and low records may vary slightly from our data, if they occured in-between our weather recording intervals... More about our weather records

Advertising

Yuma weather history for previous 24 hours

 ConditionsComfort  
Time TempWeatherWind HumidityBarometerVisibility
11:57 PM
Sat, May 23
69 °FClear.3 mph47%29.90 "HgN/A
10:57 PM71 °FClear.7 mph44%29.91 "HgN/A
9:57 PM72 °FClear.6 mph44%29.91 "HgN/A
8:57 PM75 °FClear.14 mph39%29.88 "HgN/A
7:57 PM80 °FClear.10 mph26%29.86 "Hg10 mi
6:57 PM82 °FSunny.8 mph22%29.85 "Hg10 mi
5:57 PM83 °FSunny.9 mph22%29.86 "Hg10 mi
4:57 PM85 °FSunny.12 mph22%29.87 "Hg10 mi
3:57 PM84 °FSunny.8 mph25%29.88 "Hg10 mi
2:57 PM82 °FSunny.N/A26%29.91 "Hg10 mi
1:57 PM82 °FSunny.6 mph26%29.94 "Hg10 mi
12:57 PM81 °FSunny.7 mph27%29.95 "Hg10 mi
11:57 AM79 °FSunny.5 mph29%29.98 "Hg10 mi
10:57 AM78 °FSunny.8 mph32%29.98 "Hg10 mi
9:57 AM74 °FSunny.10 mph36%29.99 "Hg10 mi
8:57 AM71 °FSunny.13 mph41%29.99 "Hg10 mi
7:57 AM66 °FSunny.7 mph52%29.99 "Hg10 mi
6:57 AM62 °FSunny.5 mph54%29.98 "Hg10 mi
5:57 AM60 °FSunny.No wind58%29.96 "Hg10 mi
4:57 AM60 °FClear.6 mph58%29.95 "Hg10 mi
3:57 AM61 °FClear.7 mph56%29.94 "Hg10 mi
2:57 AM61 °FClear.3 mph56%29.94 "Hg10 mi
1:57 AM62 °FClear.5 mph54%29.94 "Hg10 mi
12:57 AM64 °FClear.5 mph50%29.95 "Hg10 mi
Weather by CustomWeather, © 2015

See weather overviewHow to use our weather pages